QPF
0.01 0.01 0.01 0.01 0.01 0.02 0.02 0.02 0.03 0.04 0.05 0.06 0.05 0.04 0.03 0.03 0.03 0.03 0.03 0.03 0.03 0.04 0.06 0.07 0.06 0.05 0.03 0.03 0.03 0.02 0.02 0.01 0.01 0.01 0.01 0.01 0.01 0.01 0.01 0.01 0.00 0.00 0.00 0.00 0.00 0.00 0.00 0.00 0.00 0.00 0.00 0.00 0.00 0.00 0.00 0.00 0.00 0.00 0.00 0.00 0.00 0.00 0.00 0.00 0.00 0.00 0.00 0.00 0.00
0.01 0.01 0.01 0.01 0.01 0.01 0.02 0.02 0.02 0.03 0.04 0.05 0.06 0.06 0.06 0.05 0.05 0.04 0.05 0.05 0.04 0.04 0.03 0.02 0.02 0.02 0.02 0.01 0.02 0.02 0.02 0.02 0.02 0.01 0.01 0.00 0.01 0.01 0.01 0.01 0.01 0.00 0.00 0.00 0.00 0.00 0.00 0.00 0.00 0.00 0.00 0.00 0.00 0.00 0.00 0.00 0.00 0.00 0.00 0.00 0.00 0.00 0.00 0.00 0.00 0.00 0.00 0.00 0.00
0.01 0.01 0.00 0.01 0.01 0.01 0.01 0.01 0.02 0.02 0.03 0.03 0.04 0.04 0.04 0.05 0.05 0.05 0.05 0.05 0.05 0.06 0.05 0.03 0.02 0.01 0.01 0.00 0.00 0.00 0.00 0.01 0.01 0.01 0.01 0.01 0.01 0.01 0.01 0.01 0.01 0.01 0.00 0.00 0.00 0.00 0.00 0.00 0.00 0.00 0.00 0.00 0.00 0.00 0.00 0.00 0.00 0.00 0.00 0.00 0.00 0.00 0.00 0.00 0.00 0.00 0.00 0.00 0.00
0.01 0.01 0.01 0.01 0.01 0.01 0.01 0.01 0.01 0.01 0.02 0.02 0.02 0.03 0.03 0.03 0.03 0.04 0.05 0.05 0.06 0.06 0.07 0.07 0.05 0.03 0.01 0.01 0.01 0.00 0.00 0.00 0.00 0.00 0.01 0.01 0.01 0.00 0.00 0.00 0.00 0.00 0.00 0.00 0.00 0.01 0.01 0.01 0.01 0.01 0.00 0.00 0.00 0.00 0.00 0.00 0.00 0.00 0.00 0.00 0.00 0.00 0.00 0.00 0.00 0.00 0.00 0.00 0.00
0.00 0.00 0.01 0.01 0.01 0.00 0.00 0.00 0.00 0.00 0.01 0.01 0.01 0.01 0.02 0.02 0.02 0.03 0.03 0.04 0.04 0.06 0.08 0.11 0.10 0.07 0.05 0.06 0.03 0.01 0.00 0.00 0.00 0.00 0.00 0.00 0.00 0.00 0.00 0.00 0.00 0.00 0.00 0.00 0.00 0.00 0.01 0.01 0.01 0.00 0.00 0.00 0.00 0.00 0.00 0.00 0.00 0.00 0.00 0.00 0.00 0.00 0.00 0.00 0.00 0.00 0.00 0.00 0.00
0.00 0.00 0.00 0.00 0.00 0.00 0.00 0.00 0.00 0.00 0.00 0.00 0.00 0.00 0.01 0.01 0.02 0.02 0.03 0.03 0.03 0.03 0.04 0.05 0.07 0.06 0.05 0.06 0.06 0.04 0.01 0.00 0.00 0.00 0.00 0.00 0.00 0.00 0.00 0.00 0.00 0.00 0.00 0.00 0.00 0.00 0.00 0.00 0.00 0.00 0.00 0.00 0.00 0.00 0.00 0.00 0.00 0.00 0.00 0.00 0.00 0.00 0.00 0.00 0.00 0.00 0.00 0.00 0.00
0.00 0.00 0.00 0.00 0.00 0.00 0.00 0.00 0.00 0.00 0.00 0.00 0.00 0.00 0.00 0.00 0.01 0.01 0.02 0.02 0.03 0.03 0.03 0.03 0.03 0.03 0.03 0.03 0.03 0.03 0.03 0.04 0.02 0.01 0.00 0.00 0.00 0.00 0.00 0.00 0.00 0.00 0.00 0.00 0.00 0.00 0.00 0.00 0.00 0.00 0.00 0.00 0.00 0.00 0.00 0.00 0.00 0.00 0.00 0.00 0.00 0.00 0.00 0.00 0.00 0.00 0.00 0.00 0.00
0.00 0.00 0.00 0.00 0.00 0.00 0.00 0.00 0.00 0.00 0.00 0.00 0.00 0.00 0.00 0.00 0.00 0.00 0.00 0.01 0.01 0.01 0.01 0.01 0.02 0.03 0.03 0.03 0.02 0.02 0.02 0.02 0.02 0.03 0.03 0.01 0.01 0.00 0.00 0.00 0.00 0.00 0.00 0.00 0.00 0.00 0.00 0.00 0.00 0.00 0.00 0.00 0.00 0.00 0.00 0.00 0.00 0.00 0.00 0.00 0.00 0.00 0.00 0.00 0.00 0.00 0.00 0.00 0.00
0.00 0.00 0.00 0.00 0.00 0.00 0.00 0.00 0.00 0.00 0.00 0.00 0.00 0.00 0.00 0.00 0.00 0.00 0.00 0.00 0.00 0.00 0.00 0.00 0.01 0.01 0.01 0.02 0.02 0.02 0.01 0.01 0.00 0.01 0.01 0.02 0.02 0.01 0.00 0.00 0.00 0.00 0.00 0.00 0.00 0.00 0.00 0.00 0.00 0.00 0.00 0.00 0.00 0.00 0.00 0.00 0.00 0.00 0.00 0.00 0.00 0.00 0.00 0.00 0.00 0.00 0.00 0.00 0.00
0.00 0.00 0.00 0.00 0.00 0.00 0.00 0.00 0.00 0.00 0.00 0.00 0.00 0.00 0.00 0.00 0.00 0.00 0.00 0.00 0.00 0.00 0.00 0.00 0.00 0.00 0.00 0.00 0.01 0.01 0.01 0.00 0.00 0.00 0.00 0.00 0.00 0.01 0.01 0.00 0.00 0.00 0.00 0.00 0.00 0.00 0.00 0.00 0.00 0.00 0.00 0.00 0.00 0.00 0.00 0.00 0.00 0.00 0.00 0.00 0.00 0.00 0.00 0.00 0.00 0.00 0.00 0.00 0.00
0.00 0.00 0.00 0.00 0.00 0.00 0.00 0.00 0.00 0.00 0.00 0.00 0.00 0.00 0.00 0.00 0.00 0.00 0.00 0.00 0.00 0.00 0.00 0.00 0.00 0.00 0.00 0.00 0.00 0.00 0.00 0.00 0.00 0.00 0.00 0.00 0.00 0.00 0.00 0.01 0.00 0.00 0.00 0.00 0.00 0.00 0.00 0.00 0.00 0.00 0.00 0.00 0.00 0.00 0.00 0.00 0.00 0.00 0.00 0.01 0.00 0.00 0.00 0.00 0.00 0.00 0.00 0.00 0.00
0.00 0.00 0.00 0.00 0.00 0.00 0.00 0.00 0.00 0.00 0.00 0.00 0.00 0.00 0.00 0.00 0.00 0.00 0.00 0.00 0.00 0.00 0.00 0.00 0.00 0.00 0.00 0.00 0.00 0.00 0.00 0.00 0.00 0.00 0.00 0.00 0.00 0.00 0.00 0.00 0.00 0.00 0.00 0.00 0.00 0.00 0.00 0.00 0.00 0.00 0.00 0.00 0.00 0.01 0.01 0.00 0.01 0.00 0.00 0.00 0.00 0.00 0.00 0.00 0.00 0.00 0.00 0.00 0.00
0.00 0.00 0.00 0.00 0.00 0.00 0.00 0.00 0.00 0.00 0.00 0.00 0.00 0.00 0.00 0.00 0.00 0.00 0.00 0.00 0.00 0.00 0.00 0.00 0.00 0.00 0.00 0.00 0.00 0.00 0.00 0.00 0.00 0.00 0.00 0.00 0.00 0.00 0.00 0.00 0.00 0.00 0.00 0.00 0.00 0.00 0.00 0.00 0.00 0.00 0.00 0.00 0.00 0.01 0.01 0.01 0.01 0.01 0.00 0.00 0.00 0.00 0.00 0.00 0.00 0.00 0.00 0.00 0.00
0.00 0.00 0.00 0.00 0.00 0.00 0.00 0.00 0.00 0.00 0.00 0.00 0.00 0.00 0.00 0.00 0.00 0.00 0.00 0.00 0.00 0.00 0.00 0.00 0.00 0.00 0.00 0.00 0.00 0.00 0.00 0.00 0.00 0.00 0.00 0.00 0.00 0.00 0.00 0.00 0.00 0.00 0.00 0.00 0.00 0.00 0.00 0.00 0.00 0.00 0.00 0.00 0.00 0.00 0.00 0.00 0.00 0.00 0.01 0.01 0.00 0.00 0.00 0.00 0.00 0.00 0.00 0.00 0.00
0.00 0.00 0.00 0.00 0.00 0.00 0.00 0.00 0.00 0.00 0.00 0.00 0.00 0.00 0.00 0.00 0.00 0.00 0.00 0.00 0.00 0.00 0.00 0.00 0.00 0.00 0.00 0.00 0.00 0.00 0.00 0.00 0.00 0.00 0.00 0.00 0.00 0.00 0.00 0.00 0.00 0.00 0.00 0.00 0.00 0.00 0.00 0.00 0.00 0.00 0.00 0.00 0.00 0.00 0.00 0.00 0.00 0.00 0.00 0.00 0.01 0.01 0.01 0.00 0.00 0.00 0.00 0.00 0.00
0.00 0.00 0.00 0.00 0.00 0.00 0.00 0.00 0.00 0.00 0.00 0.00 0.00 0.00 0.00 0.00 0.00 0.00 0.00 0.00 0.00 0.00 0.00 0.00 0.00 0.00 0.00 0.00 0.00 0.00 0.00 0.00 0.00 0.00 0.00 0.00 0.00 0.00 0.00 0.00 0.00 0.00 0.00 0.00 0.00 0.00 0.00 0.00 0.00 0.00 0.00 0.01 0.01 0.00 0.00 0.00 0.00 0.00 0.00 0.00 0.00 0.01 0.01 0.01 0.01 0.01 0.01 0.00 0.00
0.00 0.00 0.00 0.00 0.00 0.00 0.00 0.00 0.00 0.00 0.00 0.00 0.00 0.00 0.00 0.00 0.00 0.00 0.00 0.00 0.00 0.00 0.00 0.00 0.00 0.00 0.00 0.00 0.00 0.00 0.00 0.00 0.00 0.00 0.00 0.00 0.00 0.00 0.00 0.00 0.00 0.00 0.00 0.00 0.00 0.00 0.00 0.00 0.00 0.00 0.00 0.00 0.01 0.00 0.00 0.00 0.01 0.01 0.00 0.00 0.00 0.00 0.00 0.00 0.00 0.01 0.01 0.01 0.01
0.00 0.00 0.00 0.00 0.00 0.00 0.00 0.00 0.00 0.00 0.00 0.00 0.00 0.00 0.00 0.00 0.00 0.00 0.00 0.00 0.00 0.00 0.00 0.00 0.00 0.00 0.00 0.00 0.00 0.00 0.00 0.00 0.00 0.00 0.00 0.00 0.00 0.00 0.00 0.00 0.00 0.00 0.00 0.00 0.00 0.00 0.00 0.00 0.00 0.00 0.00 0.00 0.00 0.00 0.00 0.00 0.00 0.00 0.00 0.00 0.00 0.00 0.00 0.00 0.00 0.00 0.00 0.01 0.00
0.00 0.00 0.00 0.00 0.00 0.00 0.00 0.00 0.00 0.00 0.00 0.00 0.00 0.00 0.00 0.00 0.00 0.00 0.00 0.00 0.00 0.00 0.00 0.00 0.00 0.00 0.00 0.00 0.00 0.00 0.00 0.00 0.00 0.00 0.00 0.00 0.00 0.00 0.00 0.00 0.00 0.00 0.00 0.00 0.00 0.00 0.00 0.00 0.00 0.00 0.00 0.00 0.00 0.00 0.00 0.00 0.00 0.00 0.00 0.00 0.00 0.00 0.00 0.00 0.00 0.00 0.00 0.00 0.00
0.00 0.00 0.00 0.00 0.00 0.00 0.00 0.00 0.00 0.00 0.00 0.00 0.00 0.00 0.00 0.00 0.00 0.00 0.00 0.00 0.00 0.00 0.00 0.00 0.00 0.00 0.00 0.00 0.00 0.00 0.00 0.00 0.00 0.00 0.00 0.00 0.00 0.00 0.00 0.00 0.00 0.00 0.00 0.00 0.00 0.00 0.00 0.00 0.00 0.00 0.00 0.00 0.00 0.00 0.00 0.00 0.00 0.00 0.00 0.00 0.00 0.00 0.00 0.00 0.00 0.00 0.00 0.00 0.00
0.00 0.00 0.00 0.00 0.00 0.00 0.00 0.00 0.00 0.00 0.00 0.00 0.00 0.00 0.00 0.00 0.00 0.00 0.00 0.00 0.00 0.00 0.00 0.00 0.00 0.00 0.00 0.00 0.00 0.00 0.00 0.00 0.00 0.00 0.00 0.00 0.00 0.00 0.00 0.00 0.00 0.00 0.00 0.00 0.00 0.00 0.00 0.00 0.00 0.00 0.00 0.00 0.00 0.00 0.00 0.00 0.00 0.00 0.00 0.00 0.00 0.00 0.00 0.00 0.00 0.00 0.00 0.00 0.00
0.00 0.00 0.00 0.00 0.00 0.00 0.00 0.00 0.00 0.00 0.00 0.00 0.00 0.00 0.00 0.00 0.00 0.00 0.00 0.00 0.00 0.00 0.00 0.00 0.00 0.00 0.00 0.00 0.00 0.00 0.00 0.00 0.00 0.00 0.00 0.00 0.00 0.00 0.00 0.00 0.00 0.00 0.00 0.00 0.00 0.00 0.00 0.00 0.00 0.00 0.00 0.00 0.00 0.00 0.00 0.00 0.00 0.00 0.00 0.00 0.00 0.00 0.00 0.00 0.00 0.00 0.00 0.00 0.00
0.00 0.00 0.00 0.00 0.00 0.00 0.00 0.00 0.00 0.00 0.00 0.00 0.00 0.00 0.00 0.00 0.00 0.00 0.00 0.00 0.00 0.00 0.00 0.00 0.00 0.00 0.00 0.00 0.00 0.00 0.00 0.00 0.00 0.00 0.00 0.00 0.00 0.00 0.00 0.00 0.00 0.00 0.00 0.00 0.00 0.00 0.00 0.00 0.00 0.00 0.00 0.00 0.00 0.00 0.00 0.00 0.00 0.00 0.00 0.00 0.00 0.00 0.00 0.00 0.00 0.00 0.00 0.00 0.00
0.00 0.00 0.00 0.00 0.00 0.00 0.00 0.00 0.00 0.00 0.00 0.00 0.00 0.00 0.00 0.00 0.00 0.00 0.00 0.00 0.00 0.00 0.00 0.00 0.00 0.00 0.00 0.00 0.00 0.00 0.00 0.00 0.00 0.00 0.00 0.00 0.00 0.00 0.00 0.00 0.00 0.00 0.00 0.00 0.00 0.00 0.00 0.00 0.00 0.00 0.00 0.00 0.00 0.00 0.00 0.00 0.00 0.00 0.00 0.00 0.00 0.00 0.00 0.00 0.00 0.00 0.00 0.00 0.00
0.00 0.00 0.00 0.00 0.00 0.00 0.00 0.00 0.00 0.00 0.00 0.00 0.00 0.00 0.00 0.00 0.00 0.00 0.00 0.00 0.00 0.00 0.00 0.00 0.00 0.00 0.00 0.00 0.00 0.00 0.00 0.00 0.00 0.00 0.00 0.00 0.00 0.00 0.00 0.00 0.00 0.00 0.00 0.00 0.00 0.00 0.00 0.00 0.00 0.00 0.00 0.00 0.00 0.00 0.00 0.00 0.00 0.00 0.00 0.00 0.00 0.00 0.00 0.00 0.00 0.00 0.00 0.00 0.00
0.00 0.00 0.00 0.00 0.00 0.00 0.00 0.00 0.00 0.00 0.00 0.00 0.00 0.00 0.00 0.00 0.00 0.00 0.00 0.00 0.00 0.00 0.00 0.00 0.00 0.00 0.00 0.00 0.00 0.00 0.00 0.00 0.00 0.00 0.00 0.00 0.00 0.00 0.00 0.00 0.00 0.00 0.00 0.00 0.00 0.00 0.00 0.00 0.00 0.00 0.00 0.00 0.00 0.00 0.00 0.00 0.00 0.00 0.00 0.00 0.00 0.00 0.00 0.00 0.00 0.00 0.00 0.00 0.00
0.00 0.00 0.00 0.00 0.00 0.00 0.00 0.00 0.00 0.00 0.00 0.00 0.00 0.00 0.00 0.00 0.00 0.00 0.00 0.00 0.00 0.00 0.00 0.00 0.00 0.00 0.00 0.00 0.00 0.00 0.00 0.00 0.00 0.00 0.00 0.00 0.00 0.00 0.00 0.00 0.00 0.00 0.00 0.00 0.00 0.00 0.00 0.00 0.00 0.00 0.00 0.00 0.00 0.00 0.00 0.00 0.00 0.00 0.00 0.00 0.00 0.00 0.00 0.00 0.00 0.00 0.00 0.00 0.00
0.00 0.00 0.00 0.00 0.00 0.00 0.00 0.00 0.00 0.00 0.00 0.00 0.00 0.00 0.00 0.00 0.00 0.00 0.00 0.00 0.00 0.00 0.00 0.00 0.00 0.00 0.00 0.00 0.00 0.00 0.00 0.00 0.00 0.00 0.00 0.00 0.00 0.00 0.00 0.00 0.00 0.00 0.00 0.00 0.00 0.00 0.00 0.00 0.00 0.00 0.00 0.00 0.00 0.00 0.00 0.00 0.00 0.00 0.00 0.00 0.00 0.00 0.00 0.00 0.00 0.00 0.00 0.00 0.00
0.00 0.00 0.00 0.00 0.00 0.00 0.00 0.00 0.00 0.00 0.00 0.00 0.00 0.00 0.00 0.00 0.00 0.00 0.00 0.00 0.00 0.00 0.00 0.00 0.00 0.00 0.00 0.00 0.00 0.00 0.00 0.00 0.00 0.00 0.00 0.00 0.00 0.00 0.00 0.00 0.00 0.00 0.00 0.00 0.00 0.00 0.00 0.00 0.00 0.00 0.00 0.00 0.00 0.00 0.00 0.00 0.00 0.00 0.00 0.00 0.00 0.00 0.00 0.00 0.00 0.00 0.00 0.00 0.00
0.00 0.00 0.00 0.00 0.00 0.00 0.00 0.00 0.00 0.00 0.00 0.00 0.00 0.00 0.00 0.00 0.00 0.00 0.00 0.00 0.00 0.00 0.00 0.00 0.00 0.00 0.00 0.00 0.00 0.00 0.00 0.00 0.00 0.00 0.00 0.00 0.00 0.00 0.00 0.00 0.00 0.00 0.00 0.00 0.00 0.00 0.00 0.00 0.00 0.00 0.00 0.00 0.00 0.00 0.00 0.00 0.00 0.00 0.00 0.00 0.00 0.00 0.00 0.00 0.00 0.00 0.00 0.00 0.00
0.00 0.00 0.00 0.00 0.00 0.00 0.00 0.00 0.00 0.00 0.00 0.00 0.00 0.00 0.00 0.00 0.00 0.00 0.00 0.00 0.00 0.00 0.00 0.00 0.00 0.00 0.00 0.00 0.00 0.00 0.00 0.00 0.00 0.00 0.00 0.00 0.00 0.00 0.00 0.00 0.00 0.00 0.00 0.00 0.00 0.00 0.00 0.00 0.00 0.00 0.00 0.00 0.00 0.00 0.00 0.00 0.00 0.00 0.00 0.00 0.00 0.00 0.00 0.00 0.00 0.00 0.00 0.00 0.00
0.00 0.00 0.00 0.00 0.00 0.00 0.00 0.00 0.00 0.00 0.00 0.00 0.00 0.00 0.00 0.00 0.00 0.00 0.00 0.00 0.00 0.00 0.00 0.00 0.00 0.00 0.00 0.00 0.00 0.00 0.00 0.00 0.00 0.00 0.00 0.00 0.00 0.00 0.00 0.00 0.00 0.00 0.00 0.00 0.00 0.00 0.00 0.00 0.00 0.00 0.00 0.00 0.00 0.00 0.00 0.00 0.00 0.00 0.00 0.00 0.00 0.00 0.00 0.00 0.00 0.00 0.00 0.00 0.00
0.00 0.00 0.00 0.00 0.00 0.00 0.00 0.00 0.00 0.00 0.00 0.00 0.00 0.00 0.00 0.00 0.00 0.00 0.00 0.00 0.00 0.00 0.00 0.00 0.00 0.00 0.00 0.00 0.00 0.00 0.00 0.00 0.00 0.00 0.00 0.00 0.00 0.00 0.00 0.00 0.00 0.00 0.00 0.00 0.00 0.00 0.00 0.00 0.00 0.00 0.00 0.00 0.00 0.00 0.00 0.00 0.00 0.00 0.00 0.00 0.00 0.00 0.00 0.00 0.00 0.00 0.00 0.00 0.00
0.00 0.00 0.00 0.00 0.00 0.00 0.00 0.00 0.00 0.00 0.00 0.00 0.00 0.00 0.00 0.00 0.00 0.00 0.00 0.00 0.00 0.00 0.00 0.00 0.00 0.00 0.00 0.00 0.00 0.00 0.00 0.00 0.00 0.00 0.00 0.00 0.00 0.00 0.00 0.00 0.00 0.00 0.00 0.00 0.00 0.00 0.00 0.00 0.00 0.00 0.00 0.00 0.00 0.00 0.01 0.01 0.00 0.00 0.00 0.00 0.00 0.00 0.00 0.00 0.00 0.00 0.00 0.00 0.00
0.00 0.00 0.00 0.00 0.00 0.00 0.00 0.00 0.00 0.00 0.00 0.00 0.00 0.00 0.00 0.00 0.00 0.00 0.00 0.00 0.00 0.00 0.00 0.00 0.00 0.00 0.00 0.00 0.00 0.00 0.00 0.00 0.00 0.00 0.00 0.00 0.00 0.00 0.00 0.00 0.00 0.00 0.00 0.00 0.00 0.00 0.00 0.00 0.00 0.00 0.00 0.00 0.00 0.01 0.01 0.01 0.01 0.01 0.01 0.00 0.00 0.00 0.00 0.00 0.00 0.00 0.00 0.00 0.00
0.00 0.00 0.00 0.00 0.00 0.00 0.00 0.00 0.00 0.00 0.00 0.00 0.00 0.00 0.00 0.00 0.00 0.00 0.00 0.00 0.00 0.00 0.00 0.00 0.00 0.00 0.00 0.00 0.00 0.00 0.00 0.00 0.00 0.00 0.00 0.00 0.00 0.00 0.00 0.00 0.00 0.00 0.00 0.00 0.00 0.00 0.00 0.00 0.00 0.00 0.00 0.00 0.00 0.01 0.01 0.01 0.01 0.01 0.01 0.00 0.00 0.00 0.00 0.00 0.00 0.00 0.00 0.00 0.00
0.00 0.00 0.00 0.00 0.00 0.00 0.00 0.00 0.00 0.00 0.00 0.00 0.00 0.00 0.00 0.00 0.00 0.00 0.00 0.00 0.00 0.00 0.00 0.00 0.00 0.00 0.00 0.00 0.00 0.00 0.00 0.00 0.00 0.00 0.00 0.00 0.00 0.00 0.00 0.00 0.00 0.00 0.00 0.00 0.00 0.00 0.00 0.00 0.00 0.00 0.00 0.00 0.00 0.01 0.01 0.02 0.02 0.02 0.01 0.01 0.00 0.00 0.00 0.00 0.00 0.00 0.00 0.00 0.00
0.00 0.00 0.00 0.00 0.00 0.00 0.00 0.00 0.00 0.00 0.00 0.00 0.00 0.00 0.00 0.00 0.00 0.00 0.00 0.00 0.00 0.00 0.00 0.00 0.00 0.00 0.00 0.00 0.00 0.00 0.00 0.00 0.00 0.00 0.00 0.00 0.00 0.00 0.00 0.00 0.00 0.00 0.00 0.00 0.00 0.00 0.00 0.00 0.00 0.00 0.00 0.00 0.00 0.01 0.01 0.02 0.02 0.02 0.02 0.01 0.01 0.00 0.00 0.00 0.00 0.00 0.00 0.00 0.00
0.00 0.00 0.00 0.00 0.00 0.00 0.00 0.00 0.00 0.00 0.00 0.00 0.00 0.00 0.00 0.00 0.00 0.00 0.00 0.00 0.00 0.00 0.00 0.00 0.00 0.00 0.00 0.00 0.00 0.00 0.00 0.00 0.00 0.00 0.00 0.00 0.00 0.00 0.00 0.00 0.00 0.00 0.00 0.00 0.00 0.00 0.00 0.00 0.00 0.00 0.00 0.00 0.01 0.01 0.01 0.01 0.02 0.02 0.02 0.02 0.01 0.01 0.00 0.00 0.00 0.00 0.00 0.00 0.00
0.00 0.00 0.00 0.00 0.00 0.00 0.00 0.00 0.00 0.00 0.00 0.00 0.00 0.00 0.00 0.00 0.00 0.00 0.00 0.00 0.00 0.00 0.00 0.00 0.00 0.00 0.00 0.00 0.00 0.00 0.00 0.00 0.00 0.00 0.00 0.00 0.00 0.00 0.00 0.00 0.00 0.00 0.00 0.00 0.00 0.00 0.00 0.00 0.00 0.00 0.00 0.00 0.01 0.01 0.01 0.01 0.02 0.02 0.02 0.02 0.02 0.01 0.01 0.00 0.00 0.00 0.00 0.00 0.00
0.00 0.00 0.00 0.00 0.00 0.00 0.00 0.00 0.00 0.00 0.00 0.00 0.00 0.00 0.00 0.00 0.00 0.00 0.00 0.00 0.00 0.00 0.00 0.00 0.00 0.00 0.00 0.00 0.00 0.00 0.00 0.00 0.00 0.00 0.00 0.00 0.00 0.00 0.00 0.00 0.00 0.00 0.00 0.00 0.00 0.00 0.00 0.00 0.00 0.00 0.00 0.00 0.01 0.01 0.01 0.02 0.02 0.02 0.02 0.02 0.02 0.02 0.01 0.01 0.00 0.00 0.00 0.00 0.00
MSLP
1011.96 1012.00 1012.00 1012.04 1012.04 1012.04 1012.04 1012.04 1012.04 1012.04 1012.04 1012.04 1012.04 1012.04 1012.08 1012.08 1012.04 1012.04 1012.08 1012.16 1012.20 1012.20 1012.24 1012.28 1012.24 1012.28 1012.32 1012.40 1012.48 1012.56 1012.60 1012.68 1012.76 1012.84 1012.92 1012.96 1013.00 1013.08 1013.20 1013.24 1013.28 1013.32 1013.40 1013.48 1013.48 1013.44 1013.40 1013.40 1013.44 1013.48 1013.56 1013.60 1013.64 1013.68 1013.76 1013.92 1013.92 1013.96 1014.00 1014.04 1014.04 1014.00 1013.96 1013.92 1013.92 1013.92 1013.92 1013.92 1013.92
1011.92 1011.92 1011.92 1011.96 1012.00 1012.04 1012.04 1012.04 1012.04 1012.04 1012.04 1012.08 1012.08 1012.08 1012.08 1012.08 1012.08 1012.08 1012.08 1012.12 1012.16 1012.20 1012.24 1012.32 1012.28 1012.32 1012.32 1012.44 1012.52 1012.60 1012.60 1012.72 1012.76 1012.80 1012.88 1012.92 1013.00 1013.04 1013.16 1013.20 1013.24 1013.32 1013.40 1013.44 1013.48 1013.44 1013.32 1013.28 1013.32 1013.40 1013.48 1013.56 1013.64 1013.68 1013.76 1013.84 1013.92 1013.88 1013.88 1013.92 1013.92 1013.92 1013.92 1013.92 1013.84 1013.84 1013.84 1013.92 1013.92
1011.88 1011.88 1011.88 1011.92 1011.92 1011.96 1011.96 1011.96 1012.00 1012.00 1012.04 1012.08 1012.08 1012.08 1012.08 1012.08 1012.08 1012.08 1012.08 1012.12 1012.16 1012.20 1012.20 1012.28 1012.32 1012.32 1012.36 1012.48 1012.48 1012.56 1012.60 1012.68 1012.76 1012.80 1012.80 1012.84 1012.92 1013.00 1013.08 1013.12 1013.20 1013.28 1013.32 1013.36 1013.40 1013.36 1013.32 1013.24 1013.24 1013.32 1013.36 1013.48 1013.56 1013.60 1013.68 1013.80 1013.92 1013.92 1013.84 1013.84 1013.88 1013.92 1013.92 1013.92 1013.84 1013.84 1013.84 1013.88 1013.88
1011.84 1011.84 1011.84 1011.88 1011.88 1011.88 1011.88 1011.88 1011.88 1011.92 1011.96 1012.04 1012.04 1012.08 1012.12 1012.08 1012.08 1012.08 1012.08 1012.12 1012.12 1012.20 1012.20 1012.24 1012.32 1012.36 1012.40 1012.48 1012.48 1012.52 1012.56 1012.60 1012.68 1012.72 1012.72 1012.76 1012.80 1012.88 1012.92 1012.96 1013.04 1013.12 1013.20 1013.24 1013.32 1013.32 1013.32 1013.28 1013.24 1013.24 1013.28 1013.32 1013.36 1013.40 1013.48 1013.64 1013.76 1013.84 1013.76 1013.76 1013.84 1013.92 1013.92 1013.84 1013.84 1013.84 1013.84 1013.80 1013.80
1011.76 1011.76 1011.80 1011.76 1011.76 1011.80 1011.84 1011.80 1011.80 1011.84 1011.92 1011.96 1012.00 1012.04 1012.08 1012.08 1012.08 1012.08 1012.08 1012.12 1012.16 1012.16 1012.20 1012.24 1012.28 1012.32 1012.40 1012.48 1012.48 1012.48 1012.52 1012.56 1012.60 1012.60 1012.60 1012.60 1012.68 1012.76 1012.80 1012.84 1012.88 1012.92 1013.04 1013.12 1013.16 1013.20 1013.24 1013.32 1013.28 1013.24 1013.20 1013.20 1013.24 1013.24 1013.32 1013.44 1013.56 1013.64 1013.64 1013.68 1013.76 1013.76 1013.76 1013.76 1013.76 1013.76 1013.76 1013.76 1013.76
1011.76 1011.76 1011.76 1011.76 1011.76 1011.76 1011.80 1011.80 1011.80 1011.84 1011.88 1011.92 1011.96 1012.00 1012.04 1012.04 1012.08 1012.08 1012.08 1012.08 1012.08 1012.12 1012.16 1012.20 1012.24 1012.32 1012.36 1012.44 1012.48 1012.48 1012.48 1012.48 1012.48 1012.48 1012.48 1012.48 1012.52 1012.60 1012.64 1012.76 1012.80 1012.92 1013.00 1013.04 1013.08 1013.12 1013.16 1013.20 1013.20 1013.20 1013.24 1013.20 1013.20 1013.20 1013.20 1013.32 1013.36 1013.44 1013.48 1013.56 1013.64 1013.72 1013.72 1013.68 1013.68 1013.72 1013.72 1013.72 1013.72
1011.76 1011.72 1011.72 1011.72 1011.76 1011.76 1011.76 1011.76 1011.76 1011.80 1011.84 1011.92 1011.92 1011.92 1011.92 1011.96 1011.96 1012.00 1012.04 1012.04 1012.04 1012.08 1012.12 1012.20 1012.20 1012.28 1012.32 1012.36 1012.40 1012.44 1012.44 1012.44 1012.36 1012.32 1012.32 1012.36 1012.40 1012.48 1012.56 1012.64 1012.76 1012.84 1012.92 1013.00 1013.04 1013.08 1013.12 1013.12 1013.12 1013.20 1013.20 1013.24 1013.20 1013.20 1013.20 1013.28 1013.28 1013.28 1013.32 1013.44 1013.52 1013.60 1013.64 1013.64 1013.64 1013.64 1013.68 1013.68 1013.68
1011.72 1011.68 1011.68 1011.72 1011.72 1011.68 1011.68 1011.72 1011.72 1011.76 1011.76 1011.76 1011.76 1011.80 1011.84 1011.84 1011.92 1011.92 1011.92 1011.96 1011.96 1012.00 1012.04 1012.08 1012.12 1012.16 1012.20 1012.32 1012.32 1012.32 1012.32 1012.32 1012.32 1012.32 1012.32 1012.32 1012.32 1012.36 1012.44 1012.48 1012.60 1012.72 1012.80 1012.92 1013.00 1013.04 1013.08 1013.12 1013.12 1013.08 1013.12 1013.20 1013.24 1013.24 1013.24 1013.24 1013.24 1013.24 1013.24 1013.28 1013.40 1013.52 1013.64 1013.60 1013.60 1013.64 1013.64 1013.64 1013.64
1011.68 1011.68 1011.68 1011.68 1011.64 1011.64 1011.68 1011.68 1011.68 1011.72 1011.68 1011.68 1011.68 1011.72 1011.76 1011.76 1011.80 1011.88 1011.92 1011.92 1011.92 1011.92 1011.96 1011.96 1012.04 1012.08 1012.16 1012.20 1012.20 1012.24 1012.28 1012.32 1012.32 1012.28 1012.28 1012.32 1012.32 1012.32 1012.32 1012.40 1012.48 1012.52 1012.64 1012.76 1012.92 1013.00 1013.04 1013.04 1013.08 1013.04 1013.08 1013.12 1013.20 1013.20 1013.24 1013.28 1013.24 1013.20 1013.20 1013.24 1013.32 1013.48 1013.56 1013.64 1013.64 1013.64 1013.64 1013.64 1013.64
1011.76 1011.72 1011.68 1011.64 1011.64 1011.64 1011.64 1011.64 1011.64 1011.64 1011.64 1011.64 1011.64 1011.64 1011.68 1011.68 1011.76 1011.76 1011.80 1011.80 1011.80 1011.84 1011.84 1011.88 1011.92 1011.96 1012.04 1012.04 1012.08 1012.16 1012.20 1012.20 1012.20 1012.20 1012.24 1012.24 1012.24 1012.24 1012.28 1012.32 1012.36 1012.40 1012.52 1012.64 1012.76 1012.88 1012.92 1012.96 1012.96 1012.96 1013.00 1013.04 1013.08 1013.16 1013.20 1013.28 1013.24 1013.24 1013.24 1013.28 1013.32 1013.40 1013.48 1013.56 1013.60 1013.60 1013.60 1013.60 1013.60
1011.84 1011.76 1011.72 1011.64 1011.64 1011.64 1011.64 1011.64 1011.60 1011.56 1011.52 1011.52 1011.52 1011.52 1011.60 1011.64 1011.64 1011.64 1011.64 1011.68 1011.76 1011.76 1011.76 1011.76 1011.80 1011.84 1011.88 1011.92 1011.92 1012.00 1012.04 1012.04 1012.08 1012.12 1012.16 1012.20 1012.20 1012.20 1012.20 1012.20 1012.28 1012.32 1012.44 1012.52 1012.64 1012.76 1012.76 1012.80 1012.80 1012.84 1012.92 1012.96 1013.04 1013.08 1013.20 1013.28 1013.24 1013.24 1013.24 1013.28 1013.28 1013.32 1013.40 1013.44 1013.48 1013.52 1013.52 1013.52 1013.52
1011.92 1011.84 1011.80 1011.76 1011.76 1011.68 1011.64 1011.64 1011.56 1011.48 1011.48 1011.44 1011.44 1011.44 1011.48 1011.48 1011.52 1011.52 1011.56 1011.60 1011.64 1011.64 1011.64 1011.64 1011.64 1011.68 1011.76 1011.76 1011.76 1011.80 1011.88 1011.92 1011.96 1011.96 1012.04 1012.04 1012.08 1012.16 1012.16 1012.20 1012.20 1012.28 1012.36 1012.48 1012.56 1012.64 1012.68 1012.68 1012.68 1012.72 1012.76 1012.88 1012.96 1013.04 1013.12 1013.20 1013.24 1013.24 1013.24 1013.24 1013.28 1013.32 1013.32 1013.32 1013.36 1013.40 1013.44 1013.44 1013.48
1012.04 1011.92 1011.88 1011.84 1011.80 1011.72 1011.64 1011.60 1011.52 1011.48 1011.40 1011.36 1011.36 1011.36 1011.36 1011.36 1011.40 1011.48 1011.48 1011.52 1011.56 1011.52 1011.52 1011.52 1011.52 1011.60 1011.64 1011.64 1011.64 1011.64 1011.68 1011.76 1011.80 1011.84 1011.88 1011.92 1011.96 1012.00 1012.04 1012.12 1012.16 1012.20 1012.32 1012.40 1012.48 1012.56 1012.60 1012.60 1012.60 1012.64 1012.72 1012.76 1012.84 1012.92 1013.04 1013.12 1013.16 1013.20 1013.20 1013.20 1013.20 1013.20 1013.20 1013.20 1013.20 1013.28 1013.32 1013.32 1013.36
1012.16 1012.04 1011.92 1011.88 1011.84 1011.76 1011.64 1011.56 1011.48 1011.40 1011.36 1011.32 1011.32 1011.32 1011.32 1011.32 1011.32 1011.40 1011.44 1011.48 1011.48 1011.48 1011.48 1011.48 1011.48 1011.48 1011.52 1011.60 1011.60 1011.60 1011.60 1011.64 1011.68 1011.76 1011.76 1011.80 1011.84 1011.92 1011.92 1012.00 1012.04 1012.12 1012.20 1012.32 1012.40 1012.48 1012.52 1012.52 1012.56 1012.60 1012.64 1012.68 1012.76 1012.80 1012.92 1013.00 1013.04 1013.04 1013.04 1013.08 1013.12 1013.12 1013.08 1013.08 1013.12 1013.20 1013.24 1013.24 1013.28
1012.20 1012.08 1012.00 1011.92 1011.84 1011.76 1011.64 1011.56 1011.48 1011.40 1011.32 1011.32 1011.24 1011.24 1011.24 1011.24 1011.32 1011.32 1011.36 1011.36 1011.36 1011.40 1011.40 1011.44 1011.40 1011.44 1011.44 1011.48 1011.48 1011.52 1011.56 1011.60 1011.64 1011.64 1011.68 1011.72 1011.76 1011.76 1011.84 1011.92 1011.92 1012.00 1012.08 1012.20 1012.28 1012.36 1012.44 1012.48 1012.48 1012.52 1012.56 1012.60 1012.60 1012.72 1012.76 1012.84 1012.84 1012.88 1012.88 1012.92 1012.96 1013.00 1013.04 1013.04 1013.08 1013.16 1013.16 1013.16 1013.20
1012.28 1012.16 1012.04 1011.92 1011.88 1011.76 1011.64 1011.60 1011.48 1011.36 1011.32 1011.28 1011.20 1011.20 1011.20 1011.20 1011.24 1011.24 1011.28 1011.28 1011.28 1011.32 1011.32 1011.32 1011.32 1011.36 1011.36 1011.40 1011.44 1011.48 1011.48 1011.52 1011.56 1011.60 1011.60 1011.64 1011.68 1011.72 1011.76 1011.76 1011.84 1011.92 1012.00 1012.04 1012.16 1012.20 1012.32 1012.36 1012.40 1012.44 1012.48 1012.52 1012.56 1012.60 1012.64 1012.68 1012.72 1012.72 1012.76 1012.76 1012.80 1012.92 1012.96 1012.96 1013.04 1013.08 1013.08 1013.08 1013.12
1012.48 1012.32 1012.16 1012.04 1011.92 1011.80 1011.68 1011.60 1011.48 1011.40 1011.32 1011.28 1011.24 1011.20 1011.20 1011.20 1011.20 1011.20 1011.20 1011.20 1011.20 1011.20 1011.20 1011.20 1011.24 1011.28 1011.32 1011.32 1011.36 1011.40 1011.40 1011.44 1011.48 1011.48 1011.48 1011.52 1011.56 1011.64 1011.68 1011.72 1011.76 1011.80 1011.88 1011.92 1012.00 1012.04 1012.16 1012.20 1012.24 1012.32 1012.36 1012.40 1012.44 1012.48 1012.56 1012.60 1012.60 1012.60 1012.60 1012.60 1012.60 1012.76 1012.84 1012.92 1012.96 1013.00 1013.04 1013.04 1013.04
1012.72 1012.52 1012.32 1012.20 1012.04 1011.88 1011.76 1011.64 1011.52 1011.44 1011.36 1011.32 1011.24 1011.20 1011.20 1011.16 1011.12 1011.12 1011.12 1011.12 1011.12 1011.08 1011.08 1011.08 1011.12 1011.16 1011.20 1011.20 1011.20 1011.24 1011.32 1011.32 1011.32 1011.32 1011.36 1011.40 1011.44 1011.48 1011.56 1011.64 1011.68 1011.76 1011.80 1011.84 1011.84 1011.92 1011.96 1012.04 1012.12 1012.20 1012.20 1012.28 1012.32 1012.32 1012.40 1012.48 1012.48 1012.48 1012.48 1012.48 1012.52 1012.56 1012.64 1012.76 1012.80 1012.88 1012.92 1012.92 1012.92
1012.96 1012.76 1012.60 1012.40 1012.20 1012.04 1011.92 1011.76 1011.64 1011.48 1011.36 1011.32 1011.24 1011.20 1011.16 1011.16 1011.12 1011.08 1011.04 1011.04 1011.04 1011.04 1011.00 1011.00 1011.04 1011.04 1011.04 1011.08 1011.12 1011.16 1011.20 1011.20 1011.20 1011.20 1011.24 1011.24 1011.32 1011.32 1011.40 1011.48 1011.56 1011.64 1011.68 1011.76 1011.76 1011.76 1011.84 1011.92 1011.96 1012.00 1012.04 1012.08 1012.16 1012.16 1012.20 1012.28 1012.36 1012.40 1012.40 1012.44 1012.44 1012.48 1012.48 1012.56 1012.60 1012.68 1012.76 1012.76 1012.80
1013.20 1013.04 1012.88 1012.68 1012.48 1012.24 1012.04 1011.92 1011.76 1011.60 1011.44 1011.36 1011.28 1011.20 1011.16 1011.12 1011.08 1011.04 1011.00 1011.00 1011.00 1010.96 1010.96 1010.92 1010.92 1010.96 1010.96 1011.00 1011.04 1011.04 1011.08 1011.08 1011.08 1011.12 1011.12 1011.16 1011.20 1011.20 1011.20 1011.32 1011.36 1011.48 1011.56 1011.64 1011.64 1011.68 1011.72 1011.76 1011.76 1011.84 1011.88 1011.92 1011.96 1012.00 1012.04 1012.08 1012.16 1012.24 1012.28 1012.32 1012.32 1012.32 1012.36 1012.44 1012.48 1012.52 1012.60 1012.60 1012.68
1013.36 1013.24 1013.08 1012.92 1012.72 1012.48 1012.28 1012.08 1011.88 1011.72 1011.56 1011.44 1011.28 1011.20 1011.08 1011.04 1010.96 1010.96 1010.96 1010.96 1010.92 1010.92 1010.92 1010.92 1010.88 1010.92 1010.92 1010.92 1010.92 1010.92 1010.96 1010.96 1010.96 1011.00 1011.00 1011.04 1011.08 1011.08 1011.08 1011.12 1011.20 1011.28 1011.32 1011.44 1011.48 1011.52 1011.60 1011.64 1011.64 1011.68 1011.72 1011.76 1011.76 1011.80 1011.88 1011.92 1011.96 1012.04 1012.12 1012.20 1012.20 1012.24 1012.28 1012.36 1012.36 1012.40 1012.44 1012.48 1012.52
1013.48 1013.32 1013.20 1013.04 1012.88 1012.68 1012.48 1012.24 1012.04 1011.84 1011.64 1011.44 1011.28 1011.20 1011.08 1011.00 1010.92 1010.88 1010.84 1010.84 1010.88 1010.88 1010.84 1010.80 1010.80 1010.80 1010.84 1010.80 1010.84 1010.88 1010.88 1010.88 1010.88 1010.88 1010.92 1010.92 1010.92 1010.96 1011.00 1011.04 1011.04 1011.04 1011.08 1011.20 1011.24 1011.32 1011.40 1011.48 1011.52 1011.56 1011.56 1011.56 1011.60 1011.64 1011.68 1011.76 1011.76 1011.84 1011.92 1012.00 1012.04 1012.12 1012.20 1012.24 1012.28 1012.32 1012.32 1012.36 1012.40
1013.56 1013.44 1013.28 1013.12 1012.92 1012.76 1012.60 1012.36 1012.16 1011.92 1011.68 1011.48 1011.28 1011.16 1011.08 1010.96 1010.88 1010.80 1010.76 1010.76 1010.76 1010.72 1010.72 1010.72 1010.72 1010.72 1010.72 1010.76 1010.76 1010.76 1010.76 1010.80 1010.80 1010.84 1010.84 1010.84 1010.88 1010.92 1010.92 1010.92 1010.92 1010.92 1010.92 1010.96 1011.04 1011.12 1011.20 1011.32 1011.36 1011.44 1011.48 1011.48 1011.48 1011.48 1011.52 1011.56 1011.60 1011.64 1011.72 1011.76 1011.84 1011.96 1012.04 1012.12 1012.20 1012.24 1012.28 1012.32 1012.32
1013.68 1013.52 1013.40 1013.20 1013.04 1012.84 1012.64 1012.44 1012.24 1012.00 1011.76 1011.56 1011.36 1011.20 1011.04 1010.92 1010.84 1010.76 1010.68 1010.60 1010.60 1010.60 1010.60 1010.60 1010.60 1010.60 1010.60 1010.60 1010.64 1010.68 1010.72 1010.76 1010.76 1010.76 1010.76 1010.80 1010.84 1010.88 1010.88 1010.88 1010.84 1010.80 1010.80 1010.76 1010.80 1010.88 1010.96 1011.04 1011.16 1011.24 1011.32 1011.40 1011.40 1011.40 1011.44 1011.44 1011.48 1011.48 1011.48 1011.56 1011.64 1011.76 1011.84 1011.92 1012.04 1012.12 1012.20 1012.24 1012.28
1013.68 1013.56 1013.44 1013.28 1013.12 1012.92 1012.72 1012.48 1012.32 1012.08 1011.88 1011.64 1011.48 1011.28 1011.08 1010.92 1010.84 1010.72 1010.60 1010.48 1010.48 1010.40 1010.40 1010.44 1010.48 1010.48 1010.48 1010.48 1010.48 1010.52 1010.56 1010.56 1010.60 1010.60 1010.64 1010.72 1010.72 1010.76 1010.80 1010.80 1010.76 1010.72 1010.64 1010.60 1010.60 1010.68 1010.80 1010.92 1010.96 1011.04 1011.12 1011.20 1011.24 1011.32 1011.32 1011.32 1011.32 1011.32 1011.32 1011.40 1011.44 1011.52 1011.64 1011.72 1011.84 1011.96 1012.04 1012.12 1012.16
1013.64 1013.48 1013.40 1013.32 1013.16 1013.00 1012.76 1012.60 1012.40 1012.20 1012.04 1011.76 1011.56 1011.32 1011.20 1011.04 1010.92 1010.76 1010.60 1010.48 1010.36 1010.28 1010.24 1010.20 1010.24 1010.28 1010.32 1010.32 1010.32 1010.32 1010.32 1010.32 1010.36 1010.40 1010.48 1010.48 1010.52 1010.60 1010.64 1010.68 1010.64 1010.60 1010.48 1010.48 1010.48 1010.60 1010.68 1010.76 1010.80 1010.88 1010.92 1011.00 1011.04 1011.12 1011.16 1011.16 1011.16 1011.20 1011.20 1011.20 1011.24 1011.32 1011.40 1011.48 1011.56 1011.68 1011.80 1011.92 1012.00
1013.56 1013.48 1013.40 1013.32 1013.20 1013.04 1012.84 1012.68 1012.48 1012.32 1012.12 1011.92 1011.68 1011.48 1011.28 1011.12 1010.92 1010.76 1010.60 1010.48 1010.32 1010.24 1010.20 1010.12 1010.04 1010.08 1010.08 1010.08 1010.08 1010.08 1010.08 1010.08 1010.08 1010.16 1010.20 1010.24 1010.32 1010.40 1010.44 1010.48 1010.44 1010.44 1010.44 1010.44 1010.48 1010.48 1010.56 1010.60 1010.64 1010.76 1010.76 1010.80 1010.88 1010.92 1010.88 1010.88 1010.92 1011.00 1011.04 1011.04 1011.04 1011.08 1011.12 1011.16 1011.20 1011.32 1011.48 1011.68 1011.80
1013.64 1013.52 1013.40 1013.28 1013.12 1012.96 1012.80 1012.64 1012.48 1012.32 1012.20 1012.04 1011.88 1011.64 1011.40 1011.20 1011.04 1010.84 1010.68 1010.56 1010.40 1010.28 1010.16 1010.04 1009.92 1009.92 1009.92 1009.88 1009.84 1009.88 1009.88 1009.88 1009.88 1009.92 1009.96 1010.00 1010.08 1010.12 1010.16 1010.20 1010.20 1010.24 1010.28 1010.32 1010.36 1010.36 1010.40 1010.48 1010.48 1010.60 1010.60 1010.64 1010.68 1010.68 1010.68 1010.68 1010.76 1010.76 1010.80 1010.80 1010.80 1010.80 1010.80 1010.84 1010.92 1011.00 1011.16 1011.32 1011.48
1013.76 1013.64 1013.48 1013.32 1013.12 1012.92 1012.76 1012.60 1012.48 1012.32 1012.20 1012.08 1011.92 1011.68 1011.48 1011.24 1011.04 1010.88 1010.72 1010.56 1010.44 1010.28 1010.12 1009.96 1009.88 1009.80 1009.76 1009.76 1009.68 1009.68 1009.68 1009.68 1009.72 1009.72 1009.76 1009.76 1009.76 1009.80 1009.84 1009.88 1009.92 1009.96 1010.04 1010.08 1010.16 1010.20 1010.24 1010.32 1010.32 1010.40 1010.44 1010.48 1010.52 1010.52 1010.52 1010.52 1010.52 1010.52 1010.52 1010.52 1010.52 1010.52 1010.56 1010.56 1010.56 1010.64 1010.76 1010.92 1011.16
1014.00 1013.84 1013.64 1013.40 1013.12 1012.92 1012.72 1012.56 1012.44 1012.32 1012.20 1012.04 1011.92 1011.72 1011.48 1011.28 1011.04 1010.88 1010.68 1010.56 1010.36 1010.24 1010.08 1009.96 1009.88 1009.76 1009.72 1009.64 1009.60 1009.56 1009.48 1009.48 1009.48 1009.48 1009.48 1009.48 1009.44 1009.48 1009.48 1009.52 1009.56 1009.64 1009.72 1009.80 1009.92 1009.96 1010.04 1010.12 1010.16 1010.20 1010.24 1010.32 1010.32 1010.36 1010.32 1010.32 1010.32 1010.28 1010.24 1010.24 1010.20 1010.24 1010.28 1010.32 1010.32 1010.32 1010.40 1010.52 1010.72
1014.08 1013.92 1013.72 1013.48 1013.20 1012.92 1012.76 1012.60 1012.44 1012.32 1012.16 1012.04 1011.88 1011.68 1011.48 1011.28 1011.04 1010.88 1010.68 1010.52 1010.32 1010.20 1010.04 1009.96 1009.84 1009.76 1009.64 1009.52 1009.48 1009.40 1009.32 1009.32 1009.32 1009.32 1009.28 1009.24 1009.20 1009.16 1009.12 1009.20 1009.20 1009.28 1009.36 1009.48 1009.60 1009.68 1009.76 1009.84 1009.92 1010.00 1010.04 1010.12 1010.20 1010.20 1010.16 1010.08 1010.08 1010.04 1010.04 1009.96 1009.96 1010.00 1010.04 1010.12 1010.12 1010.16 1010.20 1010.24 1010.36
1014.08 1013.92 1013.68 1013.36 1013.16 1012.92 1012.76 1012.60 1012.48 1012.32 1012.20 1012.04 1011.88 1011.64 1011.48 1011.28 1011.04 1010.84 1010.64 1010.48 1010.24 1010.08 1009.92 1009.84 1009.76 1009.64 1009.48 1009.40 1009.32 1009.24 1009.20 1009.16 1009.12 1009.12 1009.12 1009.04 1009.00 1008.92 1008.88 1008.92 1008.92 1008.96 1009.08 1009.20 1009.28 1009.40 1009.48 1009.60 1009.64 1009.72 1009.80 1009.92 1009.96 1009.96 1009.92 1009.92 1009.92 1009.88 1009.84 1009.76 1009.76 1009.80 1009.88 1009.92 1009.92 1009.92 1009.96 1010.04 1010.12
1014.04 1013.80 1013.56 1013.28 1013.04 1012.84 1012.68 1012.56 1012.48 1012.32 1012.20 1012.04 1011.88 1011.68 1011.44 1011.20 1010.96 1010.76 1010.56 1010.36 1010.20 1010.00 1009.80 1009.68 1009.56 1009.48 1009.36 1009.24 1009.16 1009.04 1009.00 1008.96 1008.96 1008.92 1008.88 1008.88 1008.80 1008.76 1008.68 1008.64 1008.60 1008.64 1008.76 1008.88 1009.00 1009.12 1009.20 1009.32 1009.40 1009.48 1009.56 1009.64 1009.72 1009.72 1009.68 1009.72 1009.72 1009.68 1009.68 1009.64 1009.64 1009.64 1009.64 1009.72 1009.72 1009.76 1009.76 1009.84 1009.92
1013.92 1013.68 1013.48 1013.20 1013.00 1012.80 1012.60 1012.52 1012.44 1012.32 1012.24 1012.08 1011.92 1011.72 1011.48 1011.20 1010.92 1010.64 1010.44 1010.28 1010.04 1009.88 1009.68 1009.52 1009.40 1009.28 1009.20 1009.08 1009.00 1008.92 1008.84 1008.80 1008.72 1008.68 1008.64 1008.60 1008.60 1008.52 1008.48 1008.40 1008.36 1008.36 1008.44 1008.60 1008.72 1008.80 1008.92 1009.04 1009.12 1009.20 1009.32 1009.40 1009.48 1009.48 1009.44 1009.44 1009.44 1009.44 1009.44 1009.44 1009.44 1009.48 1009.48 1009.48 1009.48 1009.56 1009.64 1009.72 1009.76
1013.80 1013.64 1013.40 1013.20 1013.04 1012.88 1012.72 1012.60 1012.48 1012.36 1012.28 1012.12 1011.92 1011.72 1011.48 1011.20 1010.92 1010.64 1010.40 1010.20 1009.92 1009.76 1009.52 1009.32 1009.20 1009.08 1008.96 1008.88 1008.80 1008.76 1008.68 1008.60 1008.56 1008.52 1008.48 1008.44 1008.36 1008.32 1008.20 1008.12 1008.04 1008.08 1008.20 1008.32 1008.44 1008.52 1008.64 1008.76 1008.84 1008.92 1009.04 1009.20 1009.20 1009.20 1009.20 1009.20 1009.20 1009.16 1009.16 1009.20 1009.24 1009.28 1009.32 1009.36 1009.40 1009.44 1009.48 1009.52 1009.64
1013.76 1013.64 1013.44 1013.28 1013.12 1013.00 1012.88 1012.72 1012.60 1012.48 1012.32 1012.16 1011.96 1011.72 1011.44 1011.20 1010.92 1010.68 1010.48 1010.20 1009.92 1009.64 1009.36 1009.20 1009.04 1008.92 1008.76 1008.68 1008.60 1008.56 1008.48 1008.44 1008.40 1008.32 1008.28 1008.24 1008.16 1008.04 1007.92 1007.80 1007.76 1007.80 1007.92 1008.04 1008.16 1008.28 1008.36 1008.48 1008.56 1008.64 1008.76 1008.92 1008.92 1008.92 1008.92 1008.92 1008.88 1008.88 1008.92 1008.96 1009.00 1009.04 1009.12 1009.20 1009.24 1009.28 1009.32 1009.32 1009.40
1013.76 1013.64 1013.48 1013.32 1013.20 1013.04 1012.92 1012.80 1012.68 1012.52 1012.32 1012.12 1011.92 1011.72 1011.48 1011.20 1011.00 1010.76 1010.52 1010.28 1009.92 1009.60 1009.32 1009.08 1008.92 1008.76 1008.60 1008.56 1008.48 1008.40 1008.32 1008.24 1008.20 1008.12 1008.04 1008.04 1007.92 1007.84 1007.72 1007.56 1007.48 1007.48 1007.60 1007.76 1007.84 1007.96 1008.04 1008.20 1008.28 1008.36 1008.48 1008.60 1008.60 1008.60 1008.60 1008.60 1008.60 1008.60 1008.60 1008.68 1008.72 1008.76 1008.92 1009.00 1009.04 1009.12 1009.12 1009.16 1009.16
1013.68 1013.56 1013.44 1013.32 1013.16 1013.00 1012.92 1012.80 1012.64 1012.48 1012.24 1012.04 1011.84 1011.64 1011.48 1011.28 1011.04 1010.76 1010.56 1010.32 1010.04 1009.64 1009.32 1009.04 1008.84 1008.68 1008.56 1008.48 1008.36 1008.24 1008.16 1008.12 1008.04 1007.96 1007.88 1007.76 1007.72 1007.64 1007.48 1007.32 1007.20 1007.20 1007.24 1007.40 1007.48 1007.64 1007.72 1007.84 1007.96 1008.08 1008.20 1008.28 1008.28 1008.32 1008.32 1008.32 1008.32 1008.32 1008.32 1008.36 1008.48 1008.56 1008.64 1008.76 1008.84 1008.92 1008.92 1008.92 1008.92
1013.60 1013.48 1013.32 1013.20 1013.04 1012.92 1012.76 1012.60 1012.48 1012.28 1012.08 1011.92 1011.72 1011.52 1011.36 1011.20 1011.04 1010.76 1010.56 1010.32 1010.04 1009.76 1009.36 1009.04 1008.76 1008.60 1008.48 1008.44 1008.28 1008.12 1007.96 1007.88 1007.80 1007.76 1007.64 1007.52 1007.44 1007.40 1007.32 1007.16 1007.00 1006.92 1006.92 1007.04 1007.20 1007.32 1007.40 1007.52 1007.64 1007.76 1007.92 1007.96 1008.00 1008.04 1008.04 1008.04 1008.04 1008.04 1008.04 1008.12 1008.20 1008.32 1008.40 1008.52 1008.60 1008.60 1008.64 1008.64 1008.76
1013.40 1013.32 1013.20 1013.04 1012.88 1012.68 1012.52 1012.32 1012.20 1012.04 1011.92 1011.72 1011.52 1011.36 1011.20 1011.08 1010.92 1010.72 1010.52 1010.32 1010.04 1009.72 1009.36 1009.04 1008.76 1008.52 1008.40 1008.32 1008.16 1007.96 1007.76 1007.60 1007.48 1007.44 1007.36 1007.28 1007.20 1007.16 1007.08 1006.96 1006.76 1006.64 1006.68 1006.76 1006.88 1007.00 1007.08 1007.20 1007.32 1007.48 1007.60 1007.68 1007.72 1007.76 1007.76 1007.76 1007.72 1007.72 1007.76 1007.80 1007.92 1008.04 1008.12 1008.24 1008.32 1008.36 1008.40 1008.44 1008.48
1013.24 1013.12 1012.96 1012.80 1012.64 1012.48 1012.28 1012.08 1011.92 1011.76 1011.64 1011.48 1011.32 1011.20 1011.04 1010.92 1010.76 1010.60 1010.44 1010.20 1009.92 1009.64 1009.32 1009.00 1008.68 1008.48 1008.32 1008.24 1008.08 1007.88 1007.60 1007.32 1007.20 1007.12 1007.08 1007.04 1006.92 1006.88 1006.80 1006.68 1006.56 1006.44 1006.40 1006.48 1006.56 1006.64 1006.76 1006.92 1007.04 1007.20 1007.28 1007.36 1007.44 1007.48 1007.48 1007.48 1007.48 1007.40 1007.40 1007.48 1007.60 1007.72 1007.84 1007.92 1008.04 1008.12 1008.16 1008.20 1008.32
Thickness
5564 5564 5564 5564 5564 5565 5565 5566 5566 5567 5567 5567 5568 5568 5569 5570 5570 5571 5571 5571 5572 5572 5573 5574 5575 5574 5573 5574 5575 5575 5575 5576 5576 5576 5576 5576 5576 5576 5576 5576 5577 5577 5577 5578 5579 5581 5582 5583 5584 5584 5585 5586 5586 5587 5587 5586 5587 5587 5587 5587 5588 5589 5590 5591 5592 5593 5594 5595 5596
5564 5563 5563 5563 5562 5563 5563 5563 5564 5564 5564 5564 5565 5565 5566 5566 5567 5567 5568 5568 5569 5569 5569 5569 5570 5570 5571 5570 5570 5571 5571 5572 5572 5572 5572 5573 5573 5573 5574 5574 5573 5573 5573 5574 5575 5576 5578 5579 5580 5580 5580 5581 5581 5582 5582 5583 5583 5584 5584 5584 5585 5586 5586 5588 5589 5590 5591 5591 5592
5562 5562 5562 5562 5561 5561 5561 5561 5561 5561 5561 5561 5561 5562 5562 5563 5564 5565 5565 5566 5566 5565 5566 5566 5566 5566 5566 5567 5567 5567 5567 5568 5568 5569 5569 5569 5569 5570 5570 5571 5570 5570 5570 5570 5571 5572 5574 5575 5576 5577 5577 5577 5577 5578 5578 5578 5578 5579 5580 5581 5581 5581 5582 5583 5584 5586 5586 5587 5588
5560 5560 5560 5560 5560 5560 5560 5560 5560 5560 5559 5559 5559 5559 5559 5560 5561 5561 5562 5563 5563 5563 5563 5563 5563 5563 5563 5563 5564 5564 5564 5564 5565 5566 5567 5567 5568 5567 5567 5567 5567 5567 5567 5568 5568 5569 5571 5572 5572 5573 5574 5574 5575 5575 5575 5575 5575 5575 5576 5577 5577 5578 5579 5580 5581 5581 5582 5583 5584
5558 5558 5559 5559 5559 5559 5559 5559 5559 5558 5558 5557 5556 5556 5556 5557 5557 5558 5559 5559 5560 5560 5560 5560 5560 5560 5560 5560 5560 5561 5561 5562 5562 5563 5564 5564 5565 5564 5564 5564 5564 5565 5565 5565 5565 5566 5567 5569 5570 5571 5571 5571 5572 5572 5573 5573 5573 5574 5574 5575 5575 5575 5576 5577 5577 5578 5579 5580 5580
5556 5556 5556 5557 5556 5556 5556 5556 5556 5556 5555 5555 5554 5554 5554 5554 5554 5555 5556 5556 5556 5557 5557 5557 5557 5557 5557 5557 5557 5558 5558 5559 5560 5561 5561 5562 5562 5562 5561 5561 5561 5561 5561 5562 5562 5563 5564 5565 5567 5569 5569 5569 5569 5569 5569 5570 5570 5572 5572 5573 5572 5573 5574 5574 5575 5575 5576 5577 5577
5553 5554 5554 5554 5554 5554 5554 5554 5553 5553 5553 5553 5552 5552 5552 5552 5552 5552 5553 5553 5554 5554 5554 5554 5554 5554 5554 5554 5554 5555 5556 5556 5557 5558 5559 5559 5559 5559 5559 5559 5558 5558 5558 5558 5558 5559 5560 5561 5563 5565 5566 5566 5566 5566 5566 5566 5567 5568 5568 5569 5569 5569 5569 5571 5571 5571 5572 5573 5574
5550 5550 5551 5551 5551 5551 5551 5551 5551 5551 5551 5551 5551 5551 5551 5550 5550 5550 5551 5550 5551 5551 5551 5552 5552 5552 5552 5551 5552 5552 5553 5553 5554 5554 5555 5556 5556 5556 5556 5556 5555 5556 5555 5555 5555 5555 5556 5557 5559 5560 5561 5562 5562 5562 5562 5563 5564 5565 5565 5566 5565 5565 5566 5566 5567 5567 5568 5569 5569
5547 5547 5547 5548 5548 5548 5548 5548 5548 5548 5548 5548 5548 5548 5548 5548 5548 5548 5548 5548 5548 5549 5549 5549 5549 5550 5549 5549 5550 5549 5550 5550 5550 5551 5552 5553 5553 5553 5553 5552 5552 5552 5552 5552 5552 5553 5553 5554 5555 5556 5557 5557 5558 5558 5559 5559 5560 5561 5562 5562 5562 5561 5561 5562 5562 5563 5564 5565 5566
5542 5543 5544 5544 5545 5545 5545 5546 5546 5546 5546 5546 5546 5546 5546 5545 5545 5545 5546 5545 5546 5546 5546 5546 5547 5547 5547 5547 5547 5547 5547 5547 5547 5548 5549 5550 5550 5551 5551 5551 5550 5549 5549 5549 5550 5550 5550 5551 5552 5552 5553 5553 5554 5554 5554 5555 5556 5557 5558 5558 5558 5558 5558 5558 5559 5559 5560 5561 5562
5538 5538 5539 5540 5541 5541 5541 5542 5542 5543 5543 5543 5543 5543 5543 5543 5543 5543 5543 5543 5543 5543 5543 5544 5544 5544 5544 5545 5545 5545 5545 5545 5545 5546 5546 5546 5547 5548 5549 5550 5549 5548 5546 5545 5546 5547 5548 5548 5549 5550 5549 5550 5550 5550 5551 5551 5552 5553 5553 5554 5554 5555 5555 5555 5555 5556 5557 5557 5558
5533 5534 5534 5535 5535 5536 5537 5538 5539 5539 5540 5540 5540 5540 5540 5540 5540 5540 5540 5540 5540 5540 5540 5541 5541 5542 5542 5542 5542 5543 5543 5543 5543 5543 5543 5544 5544 5545 5546 5547 5546 5545 5544 5543 5543 5544 5545 5545 5546 5546 5546 5546 5546 5546 5546 5547 5547 5548 5549 5549 5550 5551 5552 5552 5553 5553 5554 5554 5555
5528 5528 5529 5530 5531 5531 5532 5533 5534 5535 5536 5537 5537 5537 5537 5537 5537 5537 5537 5537 5537 5537 5537 5538 5538 5538 5538 5539 5539 5540 5540 5541 5541 5541 5541 5541 5541 5542 5542 5543 5543 5543 5542 5541 5540 5541 5541 5542 5542 5543 5543 5543 5543 5543 5543 5543 5544 5545 5545 5546 5547 5547 5548 5549 5549 5550 5551 5552 5552
5524 5524 5525 5525 5526 5526 5528 5529 5530 5531 5532 5533 5533 5534 5534 5534 5534 5534 5534 5533 5533 5533 5534 5534 5535 5535 5535 5535 5536 5536 5537 5538 5538 5538 5538 5538 5539 5539 5539 5539 5540 5539 5539 5538 5538 5538 5538 5539 5539 5539 5539 5540 5541 5540 5541 5540 5541 5542 5542 5542 5543 5544 5545 5546 5546 5547 5547 5549 5549
5519 5520 5520 5521 5521 5522 5523 5524 5525 5526 5527 5528 5529 5530 5530 5530 5530 5530 5530 5530 5530 5530 5530 5530 5531 5531 5531 5531 5532 5532 5533 5533 5534 5534 5534 5535 5535 5536 5536 5536 5536 5536 5536 5536 5536 5535 5535 5536 5536 5536 5537 5537 5537 5538 5538 5538 5539 5539 5540 5540 5540 5541 5542 5543 5543 5543 5544 5545 5546
5513 5515 5515 5516 5517 5517 5518 5519 5520 5521 5522 5523 5524 5525 5526 5526 5526 5526 5527 5526 5526 5527 5527 5527 5527 5527 5528 5528 5528 5529 5529 5530 5530 5530 5531 5531 5532 5532 5533 5533 5533 5533 5533 5533 5533 5533 5533 5533 5533 5533 5534 5534 5534 5534 5535 5535 5536 5537 5537 5538 5538 5538 5538 5539 5539 5540 5542 5542 5542
5507 5508 5510 5511 5511 5512 5513 5514 5515 5515 5517 5517 5518 5519 5520 5521 5522 5522 5523 5523 5523 5524 5524 5524 5524 5524 5524 5525 5525 5525 5525 5526 5526 5527 5527 5528 5528 5528 5529 5529 5529 5530 5530 5530 5531 5531 5531 5530 5531 5531 5531 5531 5532 5532 5532 5532 5533 5534 5535 5535 5535 5536 5535 5536 5536 5537 5538 5539 5540
5500 5502 5503 5504 5505 5507 5508 5509 5510 5510 5511 5512 5513 5514 5515 5515 5516 5517 5518 5519 5519 5520 5520 5520 5520 5520 5521 5521 5521 5522 5522 5522 5523 5524 5524 5524 5525 5525 5526 5525 5526 5526 5526 5527 5528 5528 5528 5528 5528 5529 5529 5529 5530 5530 5530 5530 5531 5531 5532 5533 5533 5533 5533 5533 5533 5534 5534 5535 5536
5491 5493 5495 5497 5499 5500 5502 5503 5504 5505 5506 5507 5508 5508 5509 5510 5510 5512 5513 5514 5515 5515 5516 5517 5517 5517 5517 5517 5517 5518 5518 5519 5519 5520 5521 5521 5521 5522 5522 5522 5522 5522 5523 5523 5524 5525 5525 5525 5525 5526 5526 5527 5527 5528 5528 5528 5528 5529 5529 5530 5530 5531 5532 5531 5531 5532 5532 5533 5533
5483 5485 5487 5489 5491 5493 5495 5496 5498 5499 5501 5502 5503 5504 5504 5504 5506 5506 5507 5508 5509 5511 5511 5512 5513 5513 5514 5514 5514 5514 5515 5515 5515 5516 5517 5517 5518 5519 5519 5519 5519 5519 5520 5520 5520 5521 5521 5522 5522 5523 5523 5524 5525 5525 5525 5526 5526 5526 5526 5527 5527 5528 5529 5529 5529 5529 5530 5530 5530
5476 5477 5478 5480 5482 5484 5487 5489 5491 5493 5494 5496 5497 5498 5499 5500 5501 5502 5502 5503 5504 5505 5506 5506 5507 5508 5509 5509 5510 5510 5511 5511 5511 5512 5513 5513 5514 5515 5515 5516 5516 5517 5517 5517 5517 5518 5518 5518 5519 5520 5521 5521 5522 5522 5523 5523 5524 5523 5524 5524 5524 5525 5526 5526 5526 5527 5527 5527 5528
5469 5470 5471 5472 5474 5476 5479 5481 5483 5486 5488 5490 5492 5493 5494 5495 5496 5496 5497 5497 5498 5499 5500 5501 5502 5503 5504 5504 5505 5506 5506 5507 5507 5508 5508 5509 5510 5510 5511 5512 5513 5514 5514 5514 5515 5514 5515 5515 5515 5516 5517 5518 5519 5519 5520 5520 5520 5521 5521 5521 5522 5522 5522 5522 5523 5524 5524 5524 5525
5462 5462 5464 5465 5467 5469 5471 5473 5476 5478 5481 5483 5485 5487 5489 5490 5490 5491 5492 5493 5494 5494 5495 5495 5497 5498 5499 5500 5501 5501 5501 5502 5503 5503 5504 5504 5505 5506 5507 5508 5509 5510 5511 5511 5511 5511 5511 5512 5511 5512 5512 5514 5514 5515 5516 5517 5517 5518 5518 5518 5519 5519 5519 5519 5520 5520 5520 5521 5521
5455 5456 5457 5458 5460 5461 5463 5466 5468 5471 5473 5476 5478 5480 5482 5484 5485 5486 5488 5488 5489 5490 5490 5491 5492 5493 5494 5495 5496 5496 5497 5497 5498 5498 5499 5499 5500 5501 5502 5503 5504 5506 5507 5507 5508 5508 5508 5508 5508 5508 5509 5510 5510 5511 5512 5513 5513 5514 5515 5515 5515 5516 5516 5516 5516 5516 5517 5517 5518
5449 5449 5451 5451 5453 5455 5456 5459 5461 5463 5466 5468 5470 5473 5475 5477 5479 5481 5482 5483 5485 5486 5487 5487 5488 5489 5490 5490 5491 5491 5492 5493 5493 5494 5494 5495 5495 5496 5497 5499 5500 5501 5503 5504 5504 5504 5504 5504 5505 5505 5506 5506 5506 5507 5508 5509 5510 5511 5511 5512 5513 5513 5513 5513 5513 5513 5513 5513 5514
5443 5444 5444 5445 5446 5448 5450 5452 5454 5456 5458 5460 5463 5465 5468 5469 5471 5473 5475 5478 5479 5481 5482 5483 5484 5485 5485 5486 5486 5487 5488 5489 5490 5490 5490 5491 5491 5492 5493 5494 5495 5496 5498 5499 5500 5500 5500 5500 5500 5501 5502 5503 5503 5504 5504 5505 5506 5507 5508 5509 5509 5510 5511 5511 5511 5511 5511 5511 5511
5437 5437 5438 5439 5440 5442 5443 5445 5447 5449 5451 5453 5456 5458 5460 5462 5464 5466 5468 5471 5472 5474 5476 5478 5480 5481 5481 5482 5483 5484 5484 5485 5486 5486 5487 5487 5488 5488 5489 5490 5491 5492 5493 5494 5494 5495 5495 5496 5496 5497 5497 5499 5499 5500 5502 5503 5503 5504 5504 5505 5506 5507 5508 5509 5509 5509 5508 5508 5507
5430 5430 5431 5432 5434 5435 5437 5439 5441 5442 5444 5446 5449 5450 5453 5456 5458 5460 5462 5463 5465 5467 5470 5472 5474 5476 5477 5479 5480 5480 5481 5482 5482 5483 5483 5484 5484 5485 5485 5486 5487 5488 5488 5489 5489 5490 5490 5491 5492 5492 5493 5494 5495 5497 5498 5499 5500 5501 5502 5503 5504 5505 5506 5507 5507 5507 5506 5506 5505
5422 5423 5424 5425 5427 5429 5431 5433 5435 5436 5438 5439 5442 5444 5446 5449 5452 5454 5456 5457 5459 5461 5464 5466 5468 5470 5472 5474 5475 5475 5476 5477 5478 5479 5480 5481 5482 5482 5482 5483 5483 5484 5485 5485 5485 5486 5486 5487 5487 5488 5489 5490 5490 5492 5493 5495 5497 5498 5499 5500 5501 5502 5503 5504 5504 5505 5505 5504 5503
5413 5414 5416 5418 5420 5423 5425 5427 5429 5430 5431 5433 5436 5438 5440 5443 5445 5447 5450 5452 5454 5456 5458 5460 5462 5464 5466 5468 5469 5470 5472 5473 5474 5475 5477 5478 5479 5479 5480 5480 5481 5481 5482 5481 5481 5482 5482 5482 5483 5484 5484 5485 5486 5487 5489 5491 5493 5494 5496 5497 5498 5500 5500 5501 5501 5502 5502 5502 5502
5406 5407 5409 5410 5413 5415 5418 5419 5421 5423 5425 5427 5429 5431 5434 5436 5439 5441 5444 5446 5448 5450 5452 5454 5456 5459 5460 5462 5463 5465 5467 5468 5469 5470 5472 5473 5475 5476 5477 5478 5479 5479 5479 5478 5478 5478 5478 5478 5479 5479 5480 5480 5481 5483 5485 5487 5488 5490 5492 5494 5495 5497 5497 5498 5498 5499 5500 5499 5500
5400 5401 5403 5405 5407 5409 5410 5412 5414 5416 5418 5420 5422 5424 5427 5430 5432 5435 5437 5439 5442 5445 5446 5449 5451 5453 5455 5457 5458 5460 5462 5463 5464 5466 5467 5469 5471 5472 5474 5475 5476 5476 5476 5476 5475 5475 5475 5475 5475 5476 5476 5476 5477 5479 5481 5482 5484 5485 5487 5490 5491 5492 5493 5494 5495 5495 5496 5496 5497
5395 5396 5398 5399 5401 5403 5405 5406 5408 5410 5411 5413 5415 5417 5419 5423 5425 5428 5431 5434 5436 5439 5441 5444 5446 5448 5450 5452 5454 5456 5457 5459 5460 5461 5462 5464 5465 5467 5470 5471 5472 5473 5473 5472 5472 5472 5471 5472 5472 5472 5472 5473 5474 5475 5477 5479 5480 5481 5483 5485 5486 5487 5489 5490 5491 5492 5492 5493 5493
5390 5391 5393 5395 5396 5398 5399 5401 5402 5403 5404 5406 5408 5410 5413 5416 5419 5422 5424 5427 5430 5433 5435 5438 5440 5442 5445 5446 5449 5450 5452 5454 5455 5456 5458 5459 5461 5463 5465 5467 5469 5469 5469 5469 5469 5468 5468 5468 5468 5469 5469 5469 5470 5472 5474 5476 5477 5479 5480 5481 5482 5483 5484 5486 5487 5488 5488 5489 5489
5384 5386 5387 5389 5390 5392 5393 5395 5395 5396 5397 5399 5401 5403 5406 5409 5412 5415 5417 5420 5423 5426 5430 5432 5435 5437 5439 5441 5443 5444 5446 5448 5450 5451 5453 5454 5457 5459 5461 5463 5465 5466 5465 5465 5465 5465 5465 5464 5465 5465 5465 5465 5467 5468 5470 5472 5474 5476 5477 5478 5478 5479 5480 5481 5482 5483 5484 5484 5485
5378 5379 5381 5382 5383 5385 5386 5387 5388 5390 5391 5392 5394 5396 5399 5402 5405 5408 5410 5413 5417 5420 5424 5427 5429 5431 5434 5436 5438 5439 5441 5442 5444 5446 5448 5450 5452 5455 5457 5459 5461 5461 5461 5461 5461 5461 5461 5461 5461 5461 5461 5462 5463 5464 5467 5468 5470 5472 5473 5474 5475 5475 5476 5476 5477 5478 5480 5480 5482
5371 5373 5374 5376 5377 5378 5379 5380 5381 5383 5385 5386 5388 5390 5392 5395 5398 5400 5403 5406 5410 5415 5418 5421 5423 5426 5428 5430 5432 5434 5435 5437 5439 5440 5443 5444 5447 5449 5452 5454 5456 5457 5457 5457 5457 5457 5457 5457 5457 5457 5457 5458 5459 5461 5463 5464 5466 5468 5470 5471 5472 5472 5472 5472 5473 5474 5475 5477 5478
5365 5366 5368 5369 5371 5372 5373 5374 5375 5377 5379 5380 5382 5384 5386 5388 5391 5393 5396 5399 5403 5408 5412 5415 5418 5421 5422 5424 5426 5428 5430 5431 5433 5435 5437 5439 5441 5443 5446 5448 5450 5452 5452 5453 5453 5453 5454 5454 5454 5454 5454 5455 5457 5458 5459 5461 5463 5465 5466 5468 5468 5469 5468 5468 5469 5470 5472 5473 5475
5359 5360 5361 5363 5364 5366 5368 5369 5370 5372 5373 5375 5377 5379 5381 5381 5384 5386 5389 5391 5396 5400 5405 5409 5413 5415 5417 5418 5420 5423 5426 5427 5429 5430 5432 5434 5436 5437 5440 5442 5445 5447 5448 5448 5449 5449 5449 5449 5450 5450 5450 5451 5452 5454 5455 5457 5459 5461 5463 5464 5465 5465 5465 5465 5466 5467 5468 5469 5471
5353 5354 5355 5357 5358 5360 5362 5364 5366 5367 5368 5370 5372 5374 5375 5376 5378 5379 5382 5385 5388 5393 5397 5402 5406 5409 5411 5412 5415 5419 5421 5424 5425 5427 5428 5430 5431 5433 5434 5437 5439 5441 5443 5443 5444 5444 5444 5445 5445 5445 5446 5447 5448 5450 5451 5454 5456 5458 5459 5461 5461 5462 5462 5462 5462 5463 5464 5466 5466
5347 5348 5349 5351 5353 5354 5357 5359 5361 5362 5364 5366 5367 5368 5370 5370 5372 5373 5376 5379 5382 5386 5390 5395 5399 5403 5405 5407 5410 5413 5417 5420 5423 5424 5425 5426 5427 5429 5430 5433 5435 5437 5438 5439 5439 5440 5440 5440 5441 5441 5441 5442 5444 5445 5447 5449 5452 5454 5456 5457 5458 5458 5458 5459 5459 5460 5460 5461 5462